Home > Weather > Barranquilla > Past weeks

Flag for Colombia Past Weather in Barranquilla, Colombia — Yesterday and Last 2 Weeks

Now
81 °F

Passing clouds.


Feels Like: 87 °F
Forecast: 79 / 88 °F
Wind: 9 mph from North

Location: Barranquilla / Ernestocortissoz

Current Time: Jun 25, 2016 at 12:18:08 AM

Latest Report: Jun 25, 2016 at 12:00 AM


Visibility: N/A

Pressure: 29.86 "Hg

Humidity: 89%

Dew Point: 77 °F

Location of BarranquillaLocation

Past Weather in Barranquilla — Graph

°F

Barranquilla Temperature Yesterday

Maximum temperature yesterday: 91 °F (at 12:00 PM)
Minimum temperature yesterday: 81 °F (at 6:00 AM)
Average temperature yesterday: 84 °F

High & Low Weather Summary for the Past Weeks

 TemperatureHumidityPressure
High93 °F (Jun 13, 12:00 PM)100% (Jun 10, 5:00 PM)30.00 "Hg (Jun 10, 5:00 PM)
Low70 °F (Jun 13, 5:00 PM)59% (Jun 13, 12:00 PM)29.77 "Hg (Jun 18, 4:00 PM)
Average83 °F83%29.88 "Hg
* Reported Jun 9 11:00 PM — Jun 24 11:00 PM, Barranquilla, Weather by CustomWeather, © 2016

Note: Actual official high and low records may vary slightly from our data, if they occured in-between our weather recording intervals... More about our weather records

Advertising

Barranquilla Weather History for the Previous 24 Hours

Scroll right to see more
 ConditionsComfort  
Time TempWeatherWind HumidityBarometerVisibility
11:00 PM
Fri, Jun 24
82 °FPassing clouds.16 mph84%29.88 "HgN/A
10:00 PM82 °FPassing clouds.18 mph84%29.88 "HgN/A
9:00 PM82 °FPassing clouds.14 mph84%29.87 "HgN/A
8:00 PM82 °FPassing clouds.16 mph84%29.86 "HgN/A
7:00 PM82 °FPassing clouds.9 mph84%29.85 "HgN/A
6:00 PM84 °FScattered clouds.12 mph79%29.81 "HgN/A
5:00 PM84 °FMostly cloudy.12 mph84%29.81 "HgN/A
4:00 PM84 °FScattered showers. Mostly cloudy.12 mph84%29.82 "Hg5 mi
3:00 PM90 °FBroken clouds.8 mph67%29.78 "HgN/A
2:00 PM90 °FBroken clouds.9 mph71%29.80 "HgN/A
1:00 PM90 °FScattered clouds.8 mph71%29.82 "HgN/A
12:00 PM91 °FPartly sunny.3 mph63%29.83 "HgN/A
11:00 AM90 °FPartly sunny.3 mph71%29.86 "HgN/A
10:00 AM86 °FPartly sunny.3 mph79%29.87 "HgN/A
9:00 AM86 °FPartly sunny.N/A79%29.86 "HgN/A
8:00 AM84 °FScattered clouds.7 mph84%29.85 "HgN/A
7:00 AM82 °FScattered clouds.8 mph84%29.85 "HgN/A
6:00 AM81 °FSunny.12 mph89%29.83 "Hg10 mi
5:00 AM82 °FClear.14 mph79%29.80 "Hg10 mi
4:00 AM82 °FClear.16 mph84%29.79 "Hg10 mi
3:00 AM82 °FClear.18 mph84%29.80 "Hg10 mi
2:00 AM82 °FClear.18 mph84%29.81 "Hg10 mi
1:00 AM82 °FClear.17 mph84%29.84 "Hg10 mi
12:00 AM82 °FClear.16 mph89%29.85 "Hg10 mi
Weather by CustomWeather, © 2016

See weather overviewHow to use our weather pages